SL-16 DEB, 39721

Orbit data source: Space-Track

SL-16 DEB, 39721 is space debris in LEO originally from a launch on Fri, 25 Dec 1992 UTC launched from the Tyuratam Missile And Space Complex (TTMTR). Debris objects in space refer to the collection of defunct objects orbiting the Earth. Examples of debris include non-operational satellites, rocket bodies, and fragments generated from explosions, collisions, or faulty payload assembly.

Loading next visibility...
Identifier
39721, 1992-093KM
Orbit
LEO
Country
Flag of CISCIS
Related business
Manufacturer
Unknown
Mission
Spacecraft
Bus & Motor
Unknown
Mass
Unknown
Launch date (UTC)
1992-12-25 (33 years ago)
Launch vehicle
Unknown
Launch site
Tyuratam Missile And Space Complex (TTMTR)
Object type
Payload
Rocket body
Debris
Shape & HBR
Unknown shape, 1.1 m
Radar Cross Section
Small (<0.1 m²)

Expand to show TLE details & history
Last TLE update: 12 hours ago

TLE from 12 hours ago
0 SL-16 DEB
1 39721U 92093KM  26126.88834160  .00000252  00000-0  20195-3 0  9999
2 39721  71.1919 304.7039 0127317 231.2723 127.6956 13.96130530613624
Epoch: 2026-05-06T21:19Z
TLE epoch observation values (Epoch: 2026-05-06T21:19:12.714Z)
Latitude
0.00003°
Longitude
120.15856°
Altitude
967.072 km
Speed
7.339 km/s
True Right ascension
20h 18m 48s
True Declination
0° 00' 00"
Sunlit
Object was in daylight at epoch
Visualization orbit readout
Latitude
Unknown
Longitude
Unknown
Altitude
Unknown
Speed
Unknown
Apparent Right ascension
Unknown
Apparent Declination
Unknown
Sunlit
N/A
Visualization observer readout
Local Sidereal Time
17:24:52
Azimuth
Unknown
Elevation
Unknown
Doppler factor
Unknown
Orbital elements
Apogee altitude
997.878 km
Perigee altitude
812.421 km
Semi-major axis
7,283.287 km
Eccentricity
0.01273
Inclination
71.1919°
RAAN
304.7039°
Arg. of periapsis
231.2723°
True anomaly
128.83881°
Mean anomaly
127.6956°
Eccentric anomaly
128.26832°
Mean motion
3.49182 °/min
Orbital period
103.1 mins
BSTAR
0.00020195
Loading maneuver chart data...
Computing Atmospheric mass density...
Loading historical data...
Loading historical data...
Loading historical data...
Loading historical data...
Loading historical data...
Loading historical data...
Loading historical data...

Documentation

Showing up to 5 results
|